Le nostre stazioni meteo in Italia

Pubblicità
Il mio iltempo24.it
Catania/Fontanarossa, Italia (16460): Temperatura & dewpoint: 07.12.2018 22:00:00 - 13.12.2018 22:00:00 (CET)Catania/Fontanarossa, Italia (16460): velocità del vento: 07.12.2018 22:00:00 - 13.12.2018 22:00:00 (CET)Catania/Fontanarossa, Italia (16460): direzione del vento: 07.12.2018 22:00:00 - 13.12.2018 22:00:00 (CET)Catania/Fontanarossa, Italia (16460): reduced air pressure: 07.12.2018 22:00:00 - 13.12.2018 22:00:00 (CET)Catania/Fontanarossa, Italia (16460): visibility: 07.12.2018 22:00:00 - 13.12.2018 22:00:00 (CET)Catania/Fontanarossa, Italia (16460): precipitazioni: 07.12.2018 22:00:00 - 13.12.2018 22:00:00 (CET)
Data & Tempo tt [°C] td [°C] ff [km/h] ff [kn] dd ppp [hPa] vv [km] rr [mm]
13.12.2018 22:00:00 13,1 11,2 5 3 OSO 1013,4 10 0,0
13.12.2018 21:00:00 14,0 12,0 15 8 O - 10 -
13.12.2018 20:00:00 14,0 11,0 4 2 - - 10 -
13.12.2018 19:00:00 14,6 11,7 18 10 O 1013,0 10 -
13.12.2018 18:00:00 15,0 12,0 15 8 O - 10 -
13.12.2018 17:00:00 16,0 12,0 18 10 OSO - 10 -
13.12.2018 16:00:00 17,3 11,6 18 10 OSO 1012,5 10 0,0
13.12.2018 15:00:00 17,0 12,0 9 5 SO - 10 -
13.12.2018 14:00:00 19,0 12,0 11 6 OSO - 10 -
13.12.2018 13:00:00 17,4 11,2 16 9 O 1013,4 10 -
13.12.2018 12:00:00 17,0 12,0 15 8 O - 10 -
13.12.2018 11:00:00 16,0 11,0 21 11 OSO - 10 -
13.12.2018 10:00:00 15,1 11,1 13 7 O 1014,9 10 0,0
13.12.2018 09:00:00 12,0 10,0 13 7 O - 10 -
13.12.2018 08:00:00 12,0 10,0 11 6 O - 10 -
13.12.2018 07:00:00 10,9 9,5 13 7 O 1014,9 10 -
13.12.2018 06:00:00 11,0 9,0 11 6 O - 10 -
13.12.2018 05:00:00 10,0 9,0 13 7 OSO - 10 -
13.12.2018 04:00:00 11,2 8,9 13 7 O 1015,9 10 0,0
13.12.2018 03:00:00 11,0 9,0 9 5 OSO - 10 -
13.12.2018 02:00:00 11,0 10,0 13 7 O - 10 -
13.12.2018 01:00:00 10,8 9,6 13 7 O 1016,4 10 -
13.12.2018 00:00:00 10,0 10,0 13 7 O - 10 -
12.12.2018 23:00:00 10,0 9,0 11 6 O - 10 -
12.12.2018 22:00:00 10,6 10,1 9 5 SO 1017,5 10 0,0
12.12.2018 21:00:00 12,0 11,0 9 5 O - 10 -
12.12.2018 20:00:00 12,0 11,0 8 4 OSO - 10 -
12.12.2018 19:00:00 12,1 11,0 5 3 O 1017,7 10 -
12.12.2018 18:00:00 13,0 11,0 8 4 O - 10 -
12.12.2018 17:00:00 13,0 10,0 9 5 O - 10 -
12.12.2018 16:00:00 14,1 10,0 11 6 OSO 1018,0 10 0,0
12.12.2018 15:00:00 14,0 9,0 4 2 OSO - 10 -
12.12.2018 14:00:00 15,0 6,0 5 3 SO - 10 -
12.12.2018 13:00:00 14,5 6,4 8 4 SO 1019,0 10 -
12.12.2018 12:00:00 16,0 7,0 8 4 SO - 10 -
12.12.2018 11:00:00 13,0 6,0 16 9 OSO - 10 -
12.12.2018 10:00:00 12,5 5,5 13 7 OSO 1020,3 10 0,0
12.12.2018 09:00:00 8,0 5,0 4 2 - - 10 -
12.12.2018 08:00:00 6,0 4,0 13 7 SO - 10 -
12.12.2018 07:00:00 5,2 3,6 5 3 SO 1019,2 10 -
12.12.2018 06:00:00 5,0 -66,0 9 5 OSO - 10 -
12.12.2018 05:00:00 5,0 -61,0 8 4 OSO - 10 -
12.12.2018 04:00:00 6,3 -45,6 9 5 OSO 1019,0 10 0,0
12.12.2018 03:00:00 7,0 -23,0 13 7 OSO - 10 -
12.12.2018 02:00:00 8,0 5,0 15 8 O - 10 -
12.12.2018 01:00:00 8,3 4,9 11 6 O 1018,8 10 -
12.12.2018 00:00:00 12,0 4,0 13 7 ONO - 10 -
11.12.2018 23:00:00 12,0 5,0 13 7 ONO - 10 -
11.12.2018 22:00:00 11,1 5,5 9 5 O 1019,0 10 0,0
11.12.2018 21:00:00 10,0 6,0 13 7 OSO - 10 -
11.12.2018 20:00:00 11,0 5,0 15 8 O - 10 -
11.12.2018 19:00:00 10,5 5,7 11 6 O 1018,0 10 -
11.12.2018 18:00:00 10,0 5,0 13 7 O - 10 -
11.12.2018 17:00:00 13,0 4,0 18 10 O - 10 -
11.12.2018 16:00:00 14,6 5,4 15 8 ONO 1016,9 10 0,0
11.12.2018 15:00:00 16,0 3,0 11 6 NO - 10 -
11.12.2018 14:00:00 16,0 4,0 21 11 ONO - 10 -
11.12.2018 13:00:00 16,4 4,9 24 13 O 1016,1 10 -
11.12.2018 12:00:00 15,0 4,0 28 15 O - 10 -
11.12.2018 11:00:00 16,0 7,0 21 11 O - 10 -
11.12.2018 10:00:00 14,3 7,0 24 13 OSO 1017,4 10 0,0
11.12.2018 09:00:00 11,0 7,0 13 7 O - 10 -
11.12.2018 08:00:00 9,0 7,0 13 7 O - 10 -
11.12.2018 07:00:00 7,8 5,7 15 8 O 1016,2 10 -
11.12.2018 06:00:00 9,0 6,0 15 8 O - 10 -
11.12.2018 05:00:00 9,0 6,0 16 9 OSO - 10 -
11.12.2018 04:00:00 8,1 5,1 15 8 O 1015,1 10 0,0
11.12.2018 03:00:00 10,0 5,0 16 9 SO - 8 -
11.12.2018 02:00:00 11,0 7,0 11 6 SO - 8 -
11.12.2018 01:00:00 9,8 7,1 4 2 - 1015,0 10 -
11.12.2018 00:00:00 12,0 7,0 5 3 ENE - 10 -
10.12.2018 23:00:00 10,0 6,0 5 3 E - 10 -
10.12.2018 22:00:00 10,7 7,3 11 6 O 1014,8 10 0,0
10.12.2018 21:00:00 11,0 7,0 2 1 - - 10 -
10.12.2018 20:00:00 12,0 7,0 5 3 SO - 10 -
10.12.2018 19:00:00 12,9 7,2 16 9 O 1014,4 10 -
10.12.2018 18:00:00 14,0 7,0 21 11 ONO - 10 -
10.12.2018 17:00:00 16,0 5,0 18 10 ONO - 10 -
10.12.2018 16:00:00 17,6 4,7 28 15 ONO 1013,8 10 0,0
10.12.2018 15:00:00 19,0 6,0 29 16 O - 10 -
10.12.2018 14:00:00 19,0 3,0 28 15 ONO - 10 -
10.12.2018 13:00:00 19,4 4,5 26 14 O 1014,1 10 -
10.12.2018 12:00:00 19,0 5,0 31 17 O - 10 -
10.12.2018 11:00:00 19,0 5,0 21 11 ONO - 10 -
10.12.2018 10:00:00 16,8 8,9 15 8 SO 1015,8 10 0,0
10.12.2018 09:00:00 15,0 8,0 4 2 - - 10 -
10.12.2018 08:00:00 13,0 7,0 24 13 O - 10 -
10.12.2018 07:00:00 13,0 6,6 26 14 OSO 1014,2 10 -
10.12.2018 06:00:00 15,0 8,0 28 15 O - 10 -
10.12.2018 05:00:00 14,0 9,0 26 14 O - 10 -
10.12.2018 04:00:00 14,8 8,3 34 18 O 1012,6 10 0,0
10.12.2018 03:00:00 16,0 9,0 39 21 O - 10 -
10.12.2018 02:00:00 15,0 9,0 41 22 O - 10 -
10.12.2018 01:00:00 14,6 8,8 41 22 O 1012,3 10 -
10.12.2018 00:00:00 14,0 9,0 34 18 O - 10 -
09.12.2018 23:00:00 15,0 9,0 29 16 O - 10 -
09.12.2018 22:00:00 14,4 8,6 21 11 O 1014,8 10 0,0
09.12.2018 21:00:00 15,0 9,0 26 14 O - 10 -
09.12.2018 20:00:00 15,0 9,0 21 11 O - 10 -
09.12.2018 19:00:00 14,6 9,5 22 12 OSO 1015,2 10 -
09.12.2018 18:00:00 16,0 9,0 29 16 OSO - 10 -
09.12.2018 17:00:00 17,0 8,0 29 16 O - 10 -
09.12.2018 16:00:00 18,4 8,6 21 11 O 1015,3 10 0,0
09.12.2018 15:00:00 20,0 8,0 21 11 O - 10 -
09.12.2018 14:00:00 19,0 8,0 29 16 O - 10 -
09.12.2018 13:00:00 18,3 8,2 41 22 OSO 1016,1 10 -
09.12.2018 12:00:00 18,0 9,0 26 14 SO - 10 -
09.12.2018 11:00:00 17,0 8,0 22 12 OSO - 10 -
09.12.2018 10:00:00 16,2 7,8 21 11 O 1019,2 10 0,0
09.12.2018 09:00:00 15,0 7,0 18 10 ONO - 10 -
09.12.2018 08:00:00 11,0 7,0 13 7 O - 10 -
09.12.2018 07:00:00 9,4 5,7 8 4 ONO 1018,3 10 -
09.12.2018 06:00:00 11,0 6,0 15 8 SO - 10 -
09.12.2018 05:00:00 11,0 7,0 15 8 O - 10 -
09.12.2018 04:00:00 10,0 6,3 11 6 OSO 1017,2 10 0,0
09.12.2018 03:00:00 12,0 7,0 21 11 O - 10 -
09.12.2018 02:00:00 13,0 6,0 21 11 O - 10 -
09.12.2018 01:00:00 11,1 6,5 9 5 SSO 1016,9 10 -
09.12.2018 00:00:00 13,0 6,0 22 12 O - 10 -
08.12.2018 23:00:00 14,0 6,0 37 20 O - 10 -
08.12.2018 22:00:00 14,4 6,0 22 12 OSO 1016,7 10 0,0
08.12.2018 21:00:00 15,0 5,0 31 17 ONO - 10 -
08.12.2018 20:00:00 14,0 8,0 28 15 OSO - 10 -
08.12.2018 19:00:00 15,8 7,7 29 16 ONO 1015,8 10 -
08.12.2018 18:00:00 17,0 7,0 28 15 O - 10 -
08.12.2018 17:00:00 18,0 9,0 18 10 ONO - 10 -
08.12.2018 16:00:00 18,3 10,2 16 9 O 1014,8 10 0,0
08.12.2018 15:00:00 20,0 10,0 29 16 O - 10 -
08.12.2018 14:00:00 19,0 10,0 35 19 O - 10 -
08.12.2018 13:00:00 19,6 9,6 42 23 O 1015,1 10 -
08.12.2018 12:00:00 19,0 10,0 34 18 O - 10 -
08.12.2018 11:00:00 17,0 10,0 31 17 O - 10 -
08.12.2018 10:00:00 15,4 11,3 16 9 OSO 1018,6 10 0,0
08.12.2018 09:00:00 12,0 9,0 18 10 O - 10 -
08.12.2018 08:00:00 11,0 8,0 21 11 O - 10 -
08.12.2018 07:00:00 8,7 7,2 13 7 O 1018,9 10 -
08.12.2018 06:00:00 7,0 7,0 15 8 OSO - 10 -
08.12.2018 05:00:00 6,0 6,0 11 6 OSO - 10 -
08.12.2018 04:00:00 6,3 5,9 11 6 O 1019,5 10 0,0
08.12.2018 03:00:00 8,0 7,0 13 7 O - 10 -
08.12.2018 02:00:00 8,0 7,0 15 8 OSO - 10 -
08.12.2018 01:00:00 7,0 7,0 9 5 OSO - 10 -
08.12.2018 00:00:00 8,0 8,0 8 4 OSO - 10 -
07.12.2018 23:00:00 8,0 8,0 11 6 O - 10 -
07.12.2018 22:00:00 8,9 8,3 9 5 SO 1021,9 10 0,0

tt = Temperatura
td = dewpoint
ff = velocità del vento
dd = direzione del vento
ppp = reduced air pressure
vv = visibility
rr = precipitazioni

Stazioni seguenti

WeatherPro
AMSI
MeteoEarth